Torna al catalogo

STARLINK-35106

AttivoComunicazioniVLEO
NORAD 65739·PAYLOAD·🇺🇸 United States

Lanciato Sep 25, 2025 da Cape Canaveral Space Force Station

Loading…

Prossimi Passaggi (prossime 24 ore)

TLE

AggiornatoSource: CelesTrak SupGP

Epoca: Sep 14, 2026, 22:46 UTC

1 65739C 25216F   26257.94909722 -.00061988  00000+0 -18312-2 0  2577
2 65739  53.1571 171.9876 0001307  87.0577 345.3718 15.34426724    18

Traccia STARLINK-35106 in tempo reale con AllMySat

Download on the App Store